Regional Weather Roundup
Issued by NWS

Home | Current Version | Previous Version | Graphics & Text | Print | Product List | Glossary On
Versions: 1 2 3 4 5 6 7 8 9 10 11 12 13 14 15 16 17 18 19 20 21 22 23 24 25 26 27 28 29 30 31 32 33 34 35 36 37 38 39 40 41 42 43 44 45 46 47 48 49 50
960
ASUS43 KIND 242359
RWRIN

WEATHER ROUNDUP FOR INDIANA
NATIONAL WEATHER SERVICE INDIANAPOLIS IN
800 PM EDT MON APR 24 2017

NOTE: "FAIR" INDICATES FEW OR NO CLOUDS BELOW 12,000 FEET WITH NO
SIGNIFICANT WEATHER AND/OR OBSTRUCTIONS TO VISIBILITY.

* - STATION DOES NOT REPORT WEATHER SUCH AS PRECIPITATION OR FOG.

+ - STATION NOT QUALITY CONTROLLED BY THE NATIONAL WEATHER SERVICE.
    USE DATA WITH CAUTION...ESPECIALLY DEWPOINT AND RELATIVE
    HUMIDITY OBSERVATIONS.

INZ001>003-010>013-019-020-250100-
NORTHWEST INDIANA

CITY           SKY/WX    TMP DP  RH WIND       PRES   REMARKS
GARY /AIRPORT/ MOCLDY    59  36  41 NE7       29.81F
KNOX *+        CLEAR    N/A N/A N/A SE12      29.80F
MONTICELLO +   CLEAR     71  35  27 E7        29.78F
6HR MIN TEMP:  71; 6HR MAX TEMP:  74;


$$

LMZ046-743>745-250100-
SOUTHERN LAKE MICHIGAN

STATION/POSITION TIME  TEMP    WIND        PRES    WAVE
                       AIR SEA DIR/SP/G            HT
                 (UTC) (F)     (DEG/KT/KT) (MB)    (FT)
BURNS HARBOR     2340   59      80/  5/  9 1009.5F
MICHIGAN CITY    2330   71      90/ 10/ 13   N/A

$$

INZ004-005-014>016-021>024-250100-
NORTH CENTRAL INDIANA

CITY           SKY/WX    TMP DP  RH WIND       PRES   REMARKS
GOSHEN         CLEAR     64  34  32 E13       29.83F
6HR MIN TEMP:  64; 6HR MAX TEMP:  71;

SOUTH BEND     CLEAR     67  32  27 SE17G23   29.83F
6HR MIN TEMP:  67; 6HR MAX TEMP:  72;


$$

INZ006>009-017-018-025>027-250100-
NORTHEAST INDIANA

CITY           SKY/WX    TMP DP  RH WIND       PRES   REMARKS
ANGOLA *+      CLEAR     64  32  29 E15       29.86S
FORT WAYNE     PTCLDY    65  36  34 E16G24    29.83F
6HR MIN TEMP:  65; 6HR MAX TEMP:  72;

KENDALLVILLE + CLOUDY    64  34  33 E12G17    29.85F

$$

INZ028-029-035-036-043>045-051>053-250100-
WEST CENTRAL INDIANA

CITY           SKY/WX    TMP DP  RH WIND       PRES   REMARKS
CRAWFORDSVL +  CLEAR     69  40  35 E6        29.76F
6HR MIN TEMP:  69; 6HR MAX TEMP:  74;

LAFAYETTE      CLEAR     65  42  43 E12       29.76F
6HR MIN TEMP:  65; 6HR MAX TEMP:  72;

TERRE HAUTE    CLEAR     71  43  36 E7        29.75F
6HR MIN TEMP:  71; 6HR MAX TEMP:  76;


$$

INZ030>032-037>040-046>048-054>057-064-065-250100-
CENTRAL INDIANA

CITY           SKY/WX    TMP DP  RH WIND       PRES   REMARKS
COLUMBUS       PTCLDY    73  43  33 E12       29.76F
INDIANAPOLIS   PTCLDY    73  45  36 E16       29.76F
6HR MIN TEMP:  72; 6HR MAX TEMP:  76;

-EAGLE CREEK   CLEAR     73  42  32 E9        29.76F
6HR MIN TEMP:  72; 6HR MAX TEMP:  76;

KOKOMO +       CLEAR     69  40  34 E9        29.80F
6HR MIN TEMP:  69; 6HR MAX TEMP:  74;

SHELBYVILLE    PTCLDY    74  49  41 E13G24    29.76F
6HR MIN TEMP:  74; 6HR MAX TEMP:  79;


$$

INZ033-034-041-042-049-050-058-059-250100-
EAST CENTRAL INDIANA

CITY           SKY/WX    TMP DP  RH WIND       PRES   REMARKS
MUNCIE         CLOUDY    73  48  41 SE17G29   29.79F
6HR MIN TEMP:  73; 6HR MAX TEMP:  78;

RICHMOND +     CLOUDY    64  50  59 E16       29.82S

$$

INZ060-061-067>069-081>083-085>088-250100-
SOUTHWEST INDIANA

CITY           SKY/WX    TMP DP  RH WIND       PRES   REMARKS
EVANSVILLE     CLEAR     75  48  38 CALM      29.74F
6HR MIN TEMP:  74; 6HR MAX TEMP:  79;

HUNTINGBURG *+ PTCLDY    71  49  45 NE7       29.74S
6HR MIN TEMP:  71; 6HR MAX TEMP:  76;


$$

INZ062-063-066-070>080-084-089>092-250100-
SOUTH CENTRAL AND SOUTHEAST INDIANA

CITY           SKY/WX    TMP DP  RH WIND       PRES   REMARKS
BLOOMINGTON    MOCLDY    73  48  41 E6        29.76S
6HR MIN TEMP:  73; 6HR MAX TEMP:  77;

MADISON *+     CLOUDY    68  48  49 E9        29.80S
SEYMOUR +      CLOUDY    73  52  46 E9        29.75F

$$





USA.gov is the U.S. government's official web portal to all federal, state and local government web resources and services.